Concordia, KS

4:46 AM CST on December 13, 2019 (GMT -0600)
Blosser Municipal

Weather History for KCNK - November, 2019

Change the Weather History Date:

Friday, November 22, 2019

  Actual Average Record
Temperature  
Mean Temperature 30 °F 38 °F  
Max Temperature 32 °F 48 °F 68 °F (1974)
Min Temperature 28 °F 28 °F -4 °F (1929)
Degree Days  
Heating Degree Days 35 27  
Month to date heating degree days 474 467  
Since 1 July heating degree days 898 858  
Cooling Degree Days 0 0  
Month to date cooling degree days 0 0  
Year to date cooling degree days 1657 1348  
Moisture  
Dew Point 24 °F    
Average Humidity 74    
Maximum Humidity 85    
Minimum Humidity 63    
Precipitation  
Precipitation 0.12 in 0.03 in 0.53 in (1999)
Month to date precipitation 0.27 0.85  
Year to date precipitation 32.53 26.78  
Snow  
Snow 0.80 in 0.10 in 3.30 in (1991)
Month to date snowfall 1.1 1.5  
Year to date snowfall 33.6 15.4  
Since 1 July snowfall 1.3 1.7  
Snow Depth 1.00 in    
Sea Level Pressure  
Sea Level Pressure 30.20 in    
Wind  
Wind Speed 6 mph (NNW)    
Max Wind Speed 16 mph    
Max Gust Speed 23 mph    
Visibility 7 miles    
Events Fog , Snow    
T = Trace of Precipitation, MM = Missing Value Source: NWS Daily Summary

Daily Weather History Graph

Daily Weather History Graph

Search for Another Location

Airport or City:

Astronomy

Nov. 22, 2019 Rise Set
Actual Time 7:22 AM CST 5:10 PM CST
Civil Twilight 6:53 AM CST 5:39 PM CST
Nautical Twilight 6:20 AM CST 6:12 PM CST
Astronomical Twilight 5:48 AM CST 6:44 PM CST
Moon 2:31 AM CST (11/22) 3:10 PM CST (11/22)
Length of Visible Light 10h 46m
Length of Day
9h 48m
Waning Crescent, 19% of the Moon is Illuminated
Nov 22
Waning Crescent
Nov 26
New
Dec 4
First Quarter
Dec 11
Full
Dec 18
Last Quarter

Hourly Weather History & Observations

Time (CST) Temp. Windchill Dew Point Humidity Pressure Visibility Wind Dir Wind Speed Gust Speed Precip Events Conditions
12:55 AM 32.0 °F 22.1 °F 26.1 °F 79% 30.25 in 10.0 mi North 13.8 mph - N/A   Overcast
1:31 AM 32.0 °F 23.0 °F 24.8 °F 75% 30.22 in 10.0 mi NNE 11.5 mph - N/A   Overcast
1:55 AM 32.0 °F 22.1 °F 24.1 °F 73% 30.25 in 10.0 mi NNE 13.8 mph 21.9 mph 0.00 in   Overcast
2:55 AM 30.9 °F 23.5 °F 23.0 °F 72% 30.26 in 10.0 mi NNE 8.1 mph - N/A   Partly Cloudy
3:55 AM 30.9 °F 23.5 °F 23.0 °F 72% 30.25 in 10.0 mi NNE 8.1 mph - N/A   Overcast
4:55 AM 30.9 °F - 23.0 °F 72% 30.27 in 10.0 mi Calm Calm - N/A   Partly Cloudy
5:55 AM 30.0 °F 25.2 °F 23.0 °F 75% 30.27 in 10.0 mi NNW 4.6 mph - N/A   Scattered Clouds
7:55 AM 28.9 °F 21.9 °F 21.0 °F 72% 30.30 in 10.0 mi North 6.9 mph - N/A   Mostly Cloudy
8:55 AM 30.0 °F 21.1 °F 21.0 °F 69% 30.30 in 10.0 mi NNE 10.4 mph - N/A   Overcast
9:55 AM 30.0 °F 23.2 °F 21.0 °F 69% 30.29 in 10.0 mi North 6.9 mph - N/A   Overcast
10:55 AM 30.9 °F 26.2 °F 19.9 °F 64% 30.30 in 10.0 mi North 4.6 mph - N/A   Overcast
11:55 AM 30.9 °F 26.2 °F 21.0 °F 67% 30.28 in 10.0 mi NW 4.6 mph - N/A   Overcast
12:52 PM 30.2 °F 24.3 °F 21.2 °F 69% 30.21 in 2.0 mi West 5.8 mph - 0.00 in Snow Light Snow
12:55 PM 30.0 °F 22.4 °F 21.0 °F 69% 30.25 in 1.0 mi WNW 8.1 mph - 0.00 in Snow Light Snow
1:02 PM 28.9 °F 21.9 °F 23.0 °F 78% 30.21 in 0.2 mi West 6.9 mph - 0.01 in Snow Heavy Snow
1:08 PM 28.0 °F 20.8 °F 25.0 °F 88% 30.21 in 0.2 mi West 6.9 mph - 0.02 in Fog , Snow Heavy Snow
1:21 PM 28.4 °F 24.6 °F 26.6 °F 93% 30.20 in 0.2 mi WNW 3.5 mph - N/A Fog , Snow Heavy Snow
1:35 PM 28.0 °F 20.8 °F 24.1 °F 85% 30.20 in 0.5 mi West 6.9 mph - 0.07 in Fog , Snow Snow
1:55 PM 28.0 °F 22.8 °F 25.0 °F 88% 30.23 in 0.2 mi NW 4.6 mph - 0.09 in Fog , Snow Snow
2:15 PM 28.9 °F 23.9 °F 25.0 °F 85% 30.18 in 0.5 mi WNW 4.6 mph - 0.02 in Fog , Snow Snow
2:30 PM 28.9 °F 25.2 °F 25.0 °F 85% 30.17 in 1.0 mi NNW 3.5 mph - 0.02 in Snow Light Snow
2:37 PM 28.9 °F 23.9 °F 25.0 °F 85% 30.16 in 1.5 mi NNW 4.6 mph - 0.03 in Snow Light Snow
2:41 PM 28.4 °F 21.2 °F 24.8 °F 86% 30.16 in 2.0 mi North 6.9 mph - N/A Snow Light Snow
2:55 PM 28.9 °F 22.8 °F 24.1 °F 82% 30.20 in 4.0 mi North 5.8 mph - 0.03 in Snow Light Snow
3:24 PM 28.9 °F 21.9 °F 25.0 °F 85% 30.14 in 8.0 mi NNW 6.9 mph - 0.00 in   Overcast
3:53 PM 30.2 °F 23.4 °F 24.8 °F 80% 30.14 in 10.0 mi North 6.9 mph - 0.00 in   Overcast
4:33 PM 30.0 °F 23.2 °F 25.0 °F 82% 30.13 in 10.0 mi North 6.9 mph - N/A   Overcast
4:55 PM 28.9 °F 21.9 °F 25.0 °F 85% 30.17 in 10.0 mi North 6.9 mph - N/A   Overcast
5:03 PM 28.9 °F 22.8 °F 25.0 °F 85% 30.12 in 10.0 mi North 5.8 mph - N/A   Overcast
5:18 PM 28.9 °F 21.9 °F 24.1 °F 82% 30.12 in 10.0 mi North 6.9 mph - N/A   Overcast
5:55 PM 28.9 °F 22.8 °F 25.0 °F 85% 30.15 in 10.0 mi North 5.8 mph - N/A   Overcast
6:55 PM 30.0 °F 24.1 °F 25.0 °F 82% 30.15 in 10.0 mi North 5.8 mph - N/A   Overcast
7:55 PM 30.0 °F 25.2 °F 25.0 °F 82% 30.15 in 10.0 mi NW 4.6 mph - N/A   Overcast
8:55 PM 30.0 °F 25.2 °F 25.0 °F 82% 30.15 in 10.0 mi NW 4.6 mph - N/A   Overcast
9:55 PM 30.0 °F 26.5 °F 26.1 °F 85% 30.14 in 10.0 mi West 3.5 mph - N/A   Overcast
11:55 PM 30.0 °F 25.2 °F 25.0 °F 82% 30.10 in 10.0 mi SW 4.6 mph - N/A   Overcast